APRIZESAT 4 (35684 NORAD) Tracking and Keplerian Element Data

This shows tracking and keplerian element data for the satellite.

Feedback or suggestion? Click here.




ElementValue
Catalog35684
NameAPRIZESAT 4
Epoch Orbit50519
Epoch Day344.8309188
Epoch Year2018
RAAN300.0854
Inclination98.199
Eccentricity0.0047795
Argument of Perigee153.0255
Mean Anonmoly207.3455
Mean Motion14.79171217
Decay Rate5.2E-07
L11 35684U 09041D 18344.83091880 .00000052 00000-0 14501-4 0 9999
L22 35684 98.1990 300.0854 0047795 153.0255 207.3455 14.79171217505193

Live tracking and technical data element details for APRIZESAT 4 (NORAD 35684). APRIZESAT 4 can be tracked NOW for your location showing map with azimuth and elevation plus other details from your city location.

Track the satellite on the map from your city or location and see movement details for azimuth, elevation, latitude, longitude, range, height, and movement on the map or in text.







IsCatalogInMostPopularTable: catalog: 35684, numindb: 41
Update: records affected: 1



GetName: 35684 APRIZESAT 4

Hit Count: updated at: Thu, 13 Dec 2018 03:46:39 GMT